Hillsdale, MI

11:48 PM EDT on September 17, 2019 (GMT -0400)
Hillsdale Municipal

Weather History for KJYM - August, 2019

Change the Weather History Date:

Thursday, August 22, 2019

  Actual Average Record
Temperature  
Mean Temperature 66 °F -  
Max Temperature 75 °F 78 °F 91 °F (1959)
Min Temperature 55 °F 54 °F 41 °F (1969)
Growing Degree Days 16 (Base 50)    
Moisture  
Dew Point 56 °F    
Average Humidity 68    
Maximum Humidity 89    
Minimum Humidity 49    
Precipitation  
Precipitation 0.00 in - - ()
Sea Level Pressure  
Sea Level Pressure 30.01 in    
Wind  
Wind Speed 5 mph ()    
Max Wind Speed 12 mph    
Max Gust Speed -    
Visibility 10.0 miles    
Events      
Averages and records for this station are not official NWS values.
T = Trace of Precipitation, MM = Missing Value Source: Averaged Metar Reports

Daily Weather History Graph

Daily Weather History Graph

Search for Another Location

Airport or City:

Astronomy

Aug. 22, 2019 Rise Set
Actual Time 6:53 AM EDT 8:28 PM EDT
Civil Twilight 6:24 AM EDT 8:57 PM EDT
Nautical Twilight 5:48 AM EDT 9:33 PM EDT
Astronomical Twilight 5:10 AM EDT 10:10 PM EDT
Moon No Moon Rise 1:34 PM EDT (8/22)
Length of Visible Light 14h 33m
Length of Day
13h 34m
Waning Gibbous, 60% of the Moon is Illuminated
Aug 22
Waning Gibbous
Aug 23
Last Quarter
Aug 30
New
Sep 5
First Quarter
Sep 14
Full

Hourly Weather History & Observations

Time (EDT) Temp. Dew Point Humidity Pressure Visibility Wind Dir Wind Speed Gust Speed Precip Events Conditions
12:16 AM 71.1 °F 67.1 °F 87% 29.97 in 10.0 mi NNW 6.9 mph - N/A   Overcast
12:35 AM 71.1 °F 66.7 °F 86% 29.97 in 10.0 mi North 4.6 mph - N/A   Overcast
12:55 AM 70.7 °F 64.2 °F 80% 29.97 in 10.0 mi North 6.9 mph - N/A   Overcast
12:56 AM 70.7 °F 63.9 °F 79% 29.97 in 10.0 mi North 6.9 mph - N/A   Overcast
1:19 AM 68.5 °F 59.2 °F 72% 29.96 in 10.0 mi NNW 5.8 mph - N/A   Scattered Clouds
1:37 AM 68.7 °F 58.3 °F 69% 29.97 in 10.0 mi NNW 4.6 mph - N/A   Mostly Cloudy
1:55 AM 68.2 °F 57.7 °F 69% 29.97 in 10.0 mi North 5.8 mph - N/A   Overcast
2:15 AM 67.5 °F 57.7 °F 71% 29.96 in 10.0 mi NNW 5.8 mph - N/A   Mostly Cloudy
2:16 AM 67.6 °F 57.7 °F 71% 29.96 in 10.0 mi NNW 5.8 mph - N/A   Mostly Cloudy
2:35 AM 67.3 °F 57.7 °F 71% 29.96 in 10.0 mi NNW 6.9 mph - N/A   Overcast
2:40 AM 67.1 °F 57.6 °F 71% 29.96 in 10.0 mi North 5.8 mph - N/A   Overcast
2:58 AM 67.1 °F 57.9 °F 72% 29.97 in 10.0 mi NNW 4.6 mph - N/A   Overcast
3:35 AM 66.6 °F 58.1 °F 74% 29.98 in 10.0 mi Calm Calm - N/A   Overcast
3:55 AM 66.0 °F 58.3 °F 76% 29.98 in 10.0 mi North 4.6 mph - N/A   Overcast
4:19 AM 65.8 °F 58.1 °F 76% 29.98 in 10.0 mi Calm Calm - N/A   Mostly Cloudy
4:37 AM 65.5 °F 57.9 °F 77% 29.97 in 10.0 mi NNE 3.5 mph - N/A   Overcast
4:55 AM 65.3 °F 57.7 °F 76% 29.96 in 10.0 mi NNE 4.6 mph - N/A   Scattered Clouds
5:15 AM 64.8 °F 58.1 °F 79% 29.97 in 10.0 mi Calm Calm - N/A   Scattered Clouds
5:35 AM 64.6 °F 57.6 °F 78% 29.96 in 10.0 mi NNE 4.6 mph - N/A   Scattered Clouds
5:39 AM 64.4 °F 57.6 °F 78% 29.97 in 10.0 mi NE 3.5 mph - N/A   Scattered Clouds
5:58 AM 64.2 °F 57.4 °F 78% 29.97 in 10.0 mi Calm Calm - N/A   Mostly Cloudy
6:16 AM 64.0 °F 57.2 °F 78% 29.98 in 10.0 mi Calm Calm - N/A   Overcast
6:35 AM 64.0 °F 57.2 °F 78% 29.98 in 10.0 mi Calm Calm - N/A   Overcast
6:55 AM 63.7 °F 57.4 °F 80% 29.99 in 10.0 mi Calm Calm - N/A   Overcast
6:56 AM 63.7 °F 57.4 °F 80% 29.99 in 10.0 mi Calm Calm - N/A   Overcast
7:19 AM 63.5 °F 57.4 °F 80% 30.00 in 10.0 mi NNE 4.6 mph - N/A   Overcast
7:37 AM 63.5 °F 57.2 °F 80% 30.00 in 10.0 mi NNE 4.6 mph - N/A   Mostly Cloudy
7:55 AM 63.3 °F 57.2 °F 80% 30.01 in 10.0 mi NNE 5.8 mph - N/A   Mostly Cloudy
8:15 AM 63.5 °F 57.7 °F 81% 30.01 in 10.0 mi NE 6.9 mph - N/A   Mostly Cloudy
8:16 AM 63.5 °F 57.7 °F 81% 30.01 in 10.0 mi NE 6.9 mph - N/A   Mostly Cloudy
8:35 AM 63.5 °F 57.9 °F 82% 30.01 in 10.0 mi NE 9.2 mph - N/A   Overcast
8:40 AM 63.7 °F 58.1 °F 82% 30.01 in 10.0 mi NE 8.1 mph - N/A   Overcast
8:58 AM 63.9 °F 57.4 °F 79% 30.01 in 10.0 mi NE 8.1 mph - N/A   Overcast
9:16 AM 64.4 °F 55.8 °F 73% 30.01 in 10.0 mi NE 8.1 mph - N/A   Overcast
9:35 AM 65.3 °F 54.5 °F 68% 30.02 in 10.0 mi ENE 9.2 mph - N/A   Mostly Cloudy
9:55 AM 66.7 °F 54.9 °F 66% 30.02 in 10.0 mi NE 10.4 mph - N/A   Scattered Clouds
9:56 AM 66.7 °F 55.0 °F 66% 30.02 in 10.0 mi NE 11.5 mph - N/A   Scattered Clouds
10:19 AM 67.1 °F 54.7 °F 64% 30.02 in 10.0 mi NE 10.4 mph - N/A   Scattered Clouds
10:37 AM 66.9 °F 54.5 °F 64% 30.02 in 10.0 mi NE 9.2 mph - N/A   Scattered Clouds
10:55 AM 67.6 °F 54.5 °F 63% 30.02 in 10.0 mi ENE 8.1 mph - N/A   Mostly Cloudy
11:15 AM 68.9 °F 54.0 °F 59% 30.02 in 10.0 mi NNE 9.2 mph - N/A   Mostly Cloudy
11:16 AM 68.9 °F 54.0 °F 59% 30.02 in 10.0 mi NNE 8.1 mph - N/A   Scattered Clouds
11:35 AM 67.8 °F 53.6 °F 60% 30.03 in 10.0 mi ENE 8.1 mph - N/A   Scattered Clouds
11:39 AM 67.8 °F 53.8 °F 61% 30.03 in 10.0 mi NE 9.2 mph - N/A   Scattered Clouds
11:58 AM 69.4 °F 55.6 °F 61% 30.03 in 10.0 mi ENE 8.1 mph - N/A   Overcast
12:16 PM 69.1 °F 55.6 °F 62% 30.03 in 10.0 mi East 8.1 mph - N/A   Overcast
12:35 PM 70.2 °F 56.5 °F 62% 30.03 in 10.0 mi Calm Calm - N/A   Overcast
12:55 PM 71.1 °F 57.2 °F 61% 30.03 in 10.0 mi NE 5.8 mph - N/A   Scattered Clouds
1:19 PM 71.8 °F 58.3 °F 62% 30.02 in 10.0 mi East 3.5 mph - N/A   Clear
1:37 PM 71.8 °F 56.7 °F 59% 30.02 in 10.0 mi Calm Calm - N/A   Scattered Clouds
1:55 PM 72.1 °F 56.5 °F 58% 30.03 in 10.0 mi Calm Calm - N/A   Mostly Cloudy
2:15 PM 72.3 °F 55.9 °F 56% 30.03 in 10.0 mi Calm Calm - N/A   Mostly Cloudy
2:35 PM 73.0 °F 56.7 °F 56% 30.03 in 10.0 mi North 3.5 mph - N/A   Scattered Clouds
2:40 PM 73.2 °F 55.9 °F 55% 30.03 in 10.0 mi Calm Calm - N/A   Scattered Clouds
2:57 PM 74.5 °F 55.9 °F 52% 30.03 in 10.0 mi ENE 4.6 mph - N/A   Scattered Clouds
3:15 PM 73.8 °F 53.8 °F 50% 30.03 in 10.0 mi Calm Calm - N/A   Scattered Clouds
3:35 PM 74.1 °F 57.4 °F 56% 30.02 in 10.0 mi WNW 5.8 mph - N/A   Scattered Clouds
3:55 PM 75.7 °F 57.4 °F 53% 30.02 in 10.0 mi North 9.2 mph - N/A   Scattered Clouds
4:00 PM 74.8 °F 56.3 °F 52% 30.02 in 10.0 mi North 5.8 mph - N/A   Mostly Cloudy
4:18 PM 74.1 °F 56.7 °F 54% 30.01 in 10.0 mi NNW 4.6 mph - N/A   Mostly Cloudy
4:36 PM 74.5 °F 55.4 °F 51% 30.01 in 10.0 mi NNW 6.9 mph - N/A   Scattered Clouds
4:55 PM 74.7 °F 54.5 °F 49% 30.01 in 10.0 mi NNW 3.5 mph - N/A   Clear
5:15 PM 74.3 °F 55.4 °F 52% 30.01 in 10.0 mi NNW 5.8 mph - N/A   Clear
5:57 PM 73.9 °F 54.7 °F 51% 30.01 in 10.0 mi North 5.8 mph - N/A   Overcast
6:15 PM 73.6 °F 53.2 °F 49% 30.01 in 10.0 mi North 8.1 mph - N/A   Mostly Cloudy
6:35 PM 72.0 °F 53.6 °F 52% 30.02 in 10.0 mi North 8.1 mph - N/A   Mostly Cloudy
6:36 PM 72.1 °F 53.8 °F 52% 30.02 in 10.0 mi North 8.1 mph - N/A   Mostly Cloudy
6:55 PM 72.1 °F 54.3 °F 53% 30.02 in 10.0 mi North 6.9 mph - N/A   Scattered Clouds
7:00 PM 72.0 °F 53.6 °F 52% 30.02 in 10.0 mi North 8.1 mph - N/A   Scattered Clouds
7:18 PM 70.9 °F 52.9 °F 53% 30.02 in 10.0 mi NNE 5.8 mph - N/A   Scattered Clouds
7:36 PM 70.0 °F 53.2 °F 55% 30.03 in 10.0 mi NNE 3.5 mph - N/A   Clear
7:55 PM 69.1 °F 53.8 °F 58% 30.03 in 10.0 mi North 3.5 mph - N/A   Clear
8:15 PM 68.0 °F 53.8 °F 60% 30.03 in 10.0 mi NNE 3.5 mph - N/A   Clear
8:16 PM 68.0 °F 53.8 °F 60% 30.03 in 10.0 mi North 3.5 mph - N/A   Clear
8:39 PM 67.1 °F 52.9 °F 60% 30.03 in 10.0 mi NNE 4.6 mph - N/A   Mostly Cloudy
8:57 PM 65.3 °F 53.6 °F 66% 30.04 in 10.0 mi NNE 3.5 mph - N/A   Scattered Clouds
9:15 PM 64.8 °F 53.6 °F 67% 30.05 in 10.0 mi NNE 3.5 mph - N/A   Clear
9:16 PM 64.8 °F 53.6 °F 67% 30.05 in 10.0 mi NNE 3.5 mph - N/A   Clear
9:35 PM 63.5 °F 53.2 °F 69% 30.06 in 10.0 mi NE 4.6 mph - N/A   Clear
9:36 PM 63.3 °F 53.2 °F 70% 30.06 in 10.0 mi NE 5.8 mph - N/A   Clear
9:55 PM 63.1 °F 52.7 °F 69% 30.06 in 10.0 mi NNE 4.6 mph - N/A   Clear
10:00 PM 62.6 °F 52.9 °F 70% 30.06 in 10.0 mi NE 3.5 mph - N/A   Clear
10:18 PM 61.5 °F 52.9 °F 73% 30.06 in 10.0 mi NE 3.5 mph - N/A   Clear
10:36 PM 61.3 °F 52.7 °F 73% 30.06 in 10.0 mi Calm Calm - N/A   Clear
10:55 PM 59.0 °F 52.7 °F 80% 30.07 in 10.0 mi Calm Calm - N/A   Clear
11:15 PM 58.6 °F 52.7 °F 81% 30.07 in 10.0 mi Calm Calm - N/A   Clear
11:16 PM 58.6 °F 52.7 °F 81% 30.07 in 10.0 mi Calm Calm - N/A   Clear
11:39 PM 56.1 °F 52.3 °F 87% 30.08 in 10.0 mi NE 3.5 mph - N/A   Clear
11:57 PM 55.4 °F 52.3 °F 89% 30.08 in 10.0 mi Calm Calm - N/A   Clear